Tracking 20040 objects as of 19-Nov-2019
Live streaming from Space Station
objects crossing your sky now

BS-3B (YURI 3B)

Track BS-3B (YURI 3B) now!
BS-3B (YURI 3B) is classified as:


NORAD ID: 21668
Int'l Code: 1991-060A
Perigee: 36,210.7 km
Apogee: 36,218.7 km
Inclination: 13.3 °
Period: 1,457.7 minutes
Semi major axis: 42585 km
RCS: 1.6 m2 (large)
Launch date: August 25, 1991
Source: Japan (JPN)
Launch site: TANEGASHIMA SPACE CENTER (TNSTA)
aabbcc
Your satellite tracking list
Your tracking list is empty




NASA's NSSDC Master Catalog

Two Line Element Set (TLE):
1 21668U 91060A   19322.19458234  .00000025  00000-0  00000+0 0  9998
2 21668  13.3354  12.9895 0000948  55.6281 307.2263  0.98788675105632
Source of the keplerian elements: AFSPC